Regional Weather Roundup
Issued by NWS Charleston, SC

Current Version | Previous Version | Graphics & Text | Print | Product List | Glossary On
Versions: 1 2 3 4 5 6 7 8 9 10 11 12 13 14 15 16 17 18 19 20 21 22 23 24 25 26 27 28 29 30 31 32 33 34 35 36 37 38 39 40 41 42 43 44 45 46 47 48 49 50
000
ASUS42 KCHS 231725
RWRCHS

REGIONAL WEATHER ROUNDUP
NATIONAL WEATHER SERVICE CHARLESTON SC
100 PM EDT TUE SEP 23 2014

NOTE: "FAIR" INDICATES FEW OR NO CLOUDS BELOW 12,000 FEET WITH NO
SIGNIFICANT WEATHER AND/OR OBSTRUCTIONS TO VISIBILITY.

NOT ALL STATIONS ARE QUALITY CONTROLLED BY THE NATIONAL
WEATHER SERVICE. USE DATA WITH CAUTION...ESPECIALLY
DEWPOINT OBSERVATIONS.

SCZ027-030-031-034>040-042>050-231800-
...SOUTH CAROLINA...

CITY           SKY/WX    TMP DP  RH WIND       PRES   REMARKS
N CHARLESTON   LGT RAIN  71  67  87 NE12      30.14F
WATERFRONT PRK NOT AVBL
FORT JOHNSON   NOT AVBL
MOUNT PLEASANT HVY RAIN  70  68  94 N7        30.16F VSB 3/4
JOHNS ISLAND   PTSUNNY   70  70 100 NE15G23   30.14F
PINOPOLIS        N/A     70  66  88 E18       30.10R
MONCKS CORNER  LGT RAIN  68  68 100 NE10      30.17F
SUMMERVILLE    DRIZZLE   68  68 100 NE8       30.18S
BEAUFORT MCAS  LGT RAIN  72  66  81 NE9       30.16R
BEAUFORT ARPT  LGT RAIN  70  70 100 N13       30.15F
HILTON HEAD IS LGT RAIN  70  66  88 N8        30.15S
GEORGETOWN     NOT AVBL
WALTERBORO     CLOUDY    70  70 100 NE6       30.19S
ORANGEBURG     CLOUDY    65  61  87 NE13G18   30.21S
BARNWELL       CLOUDY    70  64  83 E9        30.20F
AIKEN          PTSUNNY   72  64  78 NE13      30.25S
MANNING        CLOUDY    64  64 100 N10       30.22R
KINGSTREE      NOT AVBL
COLUMBIA       PTSUNNY   71  58  63 NE12      30.23S
SUMTER         CLOUDY    65  58  77 NE16      30.23R
FLORENCE       LGT RAIN  62  57  83 NE12      30.24F
MYRTLE BEACH   PTSUNNY   66  63  88 NE16      30.20R
N MYRTLE BEACH LGT RAIN  67  61  81 NE14G21   30.19S

$$

GAZ063-065-086>088-099>101-113>116-118-119-134-136>141-150-231800-
...GEORGIA...

CITY           SKY/WX    TMP DP  RH WIND       PRES   REMARKS
SAVANNAH ARPT  PTSUNNY   78  66  66 N13       30.14S
HUNTER AAF     PTSUNNY   74  67  78 NE8       30.12S
FORT STEWART   PTSUNNY   80  64  56 N14       30.11F
STATESBORO     NOT AVBL
SYLVANIA       CLOUDY    74  69  84 NE10      30.18F
CLAXTON        PTSUNNY   77  70  78 N10       30.15F
THOMSON        PTSUNNY   74  65  73 E9G16     30.24F
AUGUSTA-BUSH   CLOUDY    73  61  65 NE9       30.19S
AUGUSTA-DANIEL PTSUNNY   75  60  59 NE14      30.21S
SWAINSBORO     PTSUNNY   77  66  69 E9        30.18S
VIDALIA        PTSUNNY   75  64  69 E13       30.16F
ALMA           PTSUNNY   81  59  47 N8        30.12S
WAYCROSS       PTSUNNY   83  65  53 NE12G20   30.10F
JESUP          FAIR      82  66  57 E14       30.11S
BRUNSWICK      PTSUNNY   77  66  69 NE13G20   30.10F
SAINT SIMONS   PTSUNNY   75  68  78 NE14G23   30.09F

$$

SCZ027-028-034-036>038-045-046-048>050-GAZ119-141-231800-
...LAKE AND SUPPLEMENTAL COASTAL OBSERVATIONS...

STATION/POSITION TIME  TEMP    WIND        PRES    WAVE   SWELL
                       AIR SEA DIR/SP/G            HT/PER HT/PER/DIR
                 (UTC) (F)     (DEG/KT/KT) (MB)    (FT/S) (FT/S/D)
UPR LAKE MARION  NOT AVBL
WINYAH BAY       1700   67      20/  9     1022.0R
LAKE MURRAY      1700   68      50/  5/ 11 1023.4S
ACE BASIN NERRS  1700   68      10/  2     1021.0S
FORT PULASKI     1700   71      10/ 16/ 20 1020.5F
SAPELO ISLAND    1700   76      70/ 11     1020.0R

$$

ANZ835-935-AMZ111-154-330-350-352-354-374-450-454-472-231800-
...C-MAN AND BUOY OBSERVATIONS...

STATION/POSITION TIME  TEMP    WIND        PRES    WAVE   SWELL
                       AIR SEA DIR/SP/G            HT/PER HT/PER/DIR
                 (UTC) (F)     (DEG/KT/KT) (MB)    (FT/S) (FT/S/D)
FOLLY BEACH CMAN 1700   69      30/ 23/ 25 1021.3F
BUOY 41004       1700   77 81   60/ 21/ 25 1018.7F   6/ 6   2/10
BUOY 41008       1700   73 82   70/ 17/ 21 1018.9F   4/ 6   2/ 70/ 7
5E ST. MARYS GA  1700      82                N/A     5/ 6
FRYING PAN BUOY  NOT AVBL
BUOY 41025       1700   74      10/ 23/ 29 1021.7F   6/ 6
CAPE LOOKOUT NC  1700   69      20/ 19/ 25 1022.1F
BUOY 41002       1612   76 80   70/ 16/ 17 1019.1F   3/ 7   3/100/ 7
BUOY 41010       1700   81 85  150/ 10/ 12 1017.4S   3/ 7   2/ 80/ 7
BUOY 41012       NOT AVBL
ST AUGUSTINE FL  1700   76     360/ 19/ 20 1018.0F
CAPERS NEARSHORE NOT AVBL
FRIPP NEARSHORE  NOT AVBL


$$


USA.gov is the U.S. government's official web portal to all federal, state and local government web resources and services.